TimeEDT,TemperatureF,Dew PointF,Humidity,Sea Level PressureIn,VisibilityMPH,Wind Direction,Wind SpeedMPH,Gust SpeedMPH,PrecipitationIn,Events,Conditions,WindDirDegrees,DateUTC
12:53 AM,62.1,57.9,86,30.09,6.0,North,6.9,-,0.02,Rain,Light Rain,350,2013-09-16 04:53:00
1:03 AM,62.6,57.2,82,30.10,8.0,North,5.8,-,0.01,Rain,Light Rain,360,2013-09-16 05:03:00
1:29 AM,60.8,57.2,88,30.11,7.0,North,8.1,-,0.02,Rain,Light Rain,350,2013-09-16 05:29:00
1:53 AM,61.0,55.9,83,30.10,10.0,North,5.8,-,0.03,,Overcast,10,2013-09-16 05:53:00
2:53 AM,59.0,55.0,87,30.12,8.0,WNW,4.6,-,0.02,Rain,Light Rain,300,2013-09-16 06:53:00
3:53 AM,59.0,55.9,90,30.11,10.0,Calm,Calm,-,0.02,,Overcast,0,2013-09-16 07:53:00
4:53 AM,57.9,55.9,93,30.12,3.0,Calm,Calm,-,0.04,Rain,Light Rain,0,2013-09-16 08:53:00
5:53 AM,57.0,55.0,93,30.14,3.0,North,3.5,-,0.00,,Scattered Clouds,360,2013-09-16 09:53:00
6:05 AM,57.2,55.4,94,30.15,4.0,Calm,Calm,-,N/A,,Mostly Cloudy,0,2013-09-16 10:05:00
6:21 AM,57.2,55.4,94,30.15,1.8,Calm,Calm,-,N/A,,Overcast,0,2013-09-16 10:21:00
6:29 AM,57.2,55.4,94,30.15,2.5,Calm,Calm,-,N/A,,Overcast,0,2013-09-16 10:29:00
6:39 AM,57.2,55.4,94,30.16,1.8,NNW,3.5,-,N/A,,Overcast,340,2013-09-16 10:39:00
6:46 AM,57.2,55.4,94,30.16,0.8,Calm,Calm,-,N/A,,Overcast,0,2013-09-16 10:46:00
6:53 AM,57.0,55.0,93,30.15,0.2,Calm,Calm,-,N/A,Fog,Fog,0,2013-09-16 10:53:00
7:53 AM,57.0,55.0,93,30.17,0.2,Calm,Calm,-,0.01,Fog,Fog,0,2013-09-16 11:53:00
8:49 AM,57.2,55.4,94,30.20,1.5,Calm,Calm,-,N/A,,Overcast,0,2013-09-16 12:49:00
8:53 AM,57.0,55.0,93,30.20,2.5,North,3.5,-,N/A,,Overcast,360,2013-09-16 12:53:00
9:01 AM,57.2,55.4,94,30.20,4.0,Calm,Calm,-,N/A,,Overcast,0,2013-09-16 13:01:00
9:51 AM,59.0,55.4,88,30.22,6.0,Calm,Calm,-,N/A,,Overcast,0,2013-09-16 13:51:00
9:53 AM,59.0,55.9,90,30.21,6.0,Calm,Calm,-,N/A,,Overcast,0,2013-09-16 13:53:00
10:53 AM,64.0,55.0,73,30.22,10.0,Variable,4.6,-,N/A,,Overcast,0,2013-09-16 14:53:00
11:53 AM,66.0,55.0,68,30.24,10.0,Variable,6.9,-,N/A,,Overcast,0,2013-09-16 15:53:00
12:39 PM,66.2,53.6,64,30.25,10.0,North,5.8,-,N/A,,Overcast,360,2013-09-16 16:39:00
12:53 PM,66.0,54.0,65,30.25,10.0,NNE,5.8,-,N/A,,Overcast,30,2013-09-16 16:53:00
1:12 PM,66.2,53.6,64,30.25,10.0,Variable,6.9,-,N/A,,Overcast,0,2013-09-16 17:12:00
1:53 PM,66.9,54.0,63,30.25,10.0,North,5.8,-,N/A,,Overcast,10,2013-09-16 17:53:00
2:53 PM,71.1,53.1,53,30.23,10.0,North,4.6,-,N/A,,Scattered Clouds,360,2013-09-16 18:53:00
3:53 PM,70.0,52.0,53,30.22,10.0,NW,8.1,-,N/A,,Overcast,320,2013-09-16 19:53:00
4:53 PM,68.0,53.1,59,30.22,10.0,Calm,Calm,-,N/A,,Scattered Clouds,0,2013-09-16 20:53:00
5:53 PM,70.0,51.1,51,30.22,10.0,North,6.9,-,N/A,,Clear,350,2013-09-16 21:53:00
6:53 PM,68.0,51.1,55,30.23,10.0,North,4.6,-,N/A,,Clear,350,2013-09-16 22:53:00
7:53 PM,63.0,52.0,67,30.24,10.0,North,4.6,-,N/A,,Clear,360,2013-09-16 23:53:00
8:53 PM,60.1,50.0,69,30.27,10.0,North,4.6,-,N/A,,Clear,360,2013-09-17 00:53:00
9:53 PM,57.9,48.9,72,30.30,10.0,North,5.8,-,N/A,,Clear,360,2013-09-17 01:53:00
10:53 PM,55.9,48.9,77,30.30,10.0,Calm,Calm,-,N/A,,Clear,0,2013-09-17 02:53:00
11:53 PM,54.0,48.0,80,30.31,10.0,NNE,3.5,-,N/A,,Clear,20,2013-09-17 03:53:00